User: anonymous   Login
Location: Unspecified
(0.0000°N, 0.0000°E)
Time: 20:48:57
(UTC+00:00)
Language:

Aussat K2 - Orbit

View from above orbital plane
View from above orbital plane
View from above satellite
View from above satellite

Ground track
Ground track

The orbit data is extracted from the following two-line orbital elements,

1 16275U 85109C   17084.77317391 -.00000321 +00000-0 +00000-0 0  9999
2 16275 015.1857 009.4088 0006543 257.1827 304.3573 00.99940249012845
Epoch (UTC): 25 March 2017 18:33:22
Eccentricity: 0.0006543
inclination: 15.1857°
perigee height: 35852 km
apogee height: 35907 km
right ascension of ascending node: 9.4088°
argument of perigee: 257.1827°
revolutions per day: 0.99940249
mean anomaly at epoch: 304.3573°
orbit number at epoch: 1284

The dashed part of the orbit path shows where the satellite is in the earth's shadow,  

DLR